Regional Weather Roundup
Issued by NWS

Home | Current Version | Previous Version | Text Only | Print | Product List | Glossary Off
Versions: 1 2 3 4 5 6 7 8 9 10 11 12 13 14 15 16 17 18 19 20 21 22 23 24 25 26 27

000
ASUS45 KTFX 162010
RWRMT
MONTANA REGIONAL WEATHER ROUNDUP
NATIONAL WEATHER SERVICE GREAT FALLS MT
100 PM MST FRI FEB 16 2018

NOTE: "FAIR" INDICATES FEW OR NO CLOUDS BELOW 12000 FEET WITH NO
SIGNIFICANT WEATHER AND/OR OBSTRUCTIONS TO VISIBILITY.

MTZ001>007-043-162100-
WEST OF THE DIVIDE

CITY           SKY/WX    TMP DP  RH WIND       PRES   REMARKS
KALISPELL      LGT SNOW  31  27  85 S13       29.88F FOG     WCI  21
MISSOULA       CLOUDY    32  25  75 CALM      29.95F
BUTTE          CLOUDY    28  11  48 SW16      29.90F WCI  16
MULLAN PASS    SNOW      20  19  96 VRB6G20   29.82F VSB 1/4 WCI  12
ANACONDA         N/A     28  16  59 MISG      29.91F
DEER LODGE       N/A     30  16  55 MISG      29.90F
EUREKA           N/A     30  27  86 MISG      29.87F
HAMILTON         N/A     36  18  48 S16       29.97F WCI  26
PLAINS           N/A     37  22  55 SE1       29.94F
RONAN            N/A     34  21  60 S10       29.94F WCI  26
$$

MTZ008-052>055-162100-
SOUTHWEST MONTANA

CITY           SKY/WX    TMP DP  RH WIND       PRES   REMARKS
BOZEMAN        CLOUDY    31  15  52 SW10      29.94F WCI  22
DILLON         CLOUDY    24  10  55 SW18G24   29.96F WCI  10
ENNIS          CLOUDY    27  14  59 S22G33    30.02F WCI  12
W YELLOWSTONE  SNOW      18  14  86 SW13G24   29.98F VSB 1/4 WCI   4
THREE FORKS      N/A     31  22  69 S29       29.93F WCI  17
TWIN BRIDGES     N/A     32   7  35 S17       29.95F WCI  21
$$

MTZ009-010-012-014-046-048-049-054-162100-
EAST SLOPES AND CENTRAL MONTANA

CITY           SKY/WX    TMP DP  RH WIND       PRES   REMARKS
CUT BANK       PTSUNNY   30  21  69 W29       29.74F WCI  15
GREAT FALLS    FAIR      30  21  69 SW29G40   29.80F WCI  15
MALMSTROM AFB  PTSUNNY   30  22  73 SW23G30   29.83F WCI  16
HELENA         CLOUDY    25  17  72 CALM      29.90F
AUGUSTA        LGT RAIN  29  17  61 W20G26    29.79F WCI  17
BOWMANS CRNR   PTSUNNY   28  21  74 SW17      29.80F WCI  16
CONRAD           N/A     30  22  72 S7        29.82  WCI  23
FAIRFIELD      FAIR      30  21  70 SW26      29.77F WCI  16
POWER          FAIR      28  21  74 SW20      29.79F WCI  15
RAYNESFORD     PTSUNNY   31  16  52 W36G43    29.80F WCI  15
ULM            PTSUNNY   31  22  70 SW25      29.84F WCI  17
WHITE SULPHUR  FOG       23  19  86 S16G23    29.86F VSB 3/4 WCI  10
$$

MTZ011-013-016-021-045-047-050-051-162100-
NORTH CENTRAL MONTANA

CITY           SKY/WX    TMP DP  RH WIND       PRES   REMARKS
HAVRE          CLOUDY    29  23  78 W22       29.80F WCI  15
LEWISTOWN      CLOUDY    27  20  75 SW26      29.80F WCI  12
N BAR RANCH    LGT SNOW  27  19  74 W22       29.82F WCI  12
CHINOOK          N/A     19  12  73 E3        29.81F
GEYSER         PTSUNNY   30  17  59 W29G36    29.78F WCI  15
STANFORD       PTSUNNY   28  19  68 W30G41    29.78F WCI  12
WINIFRED       FLURRIES  29  22  75 W21G28    29.79F WCI  16
$$

MTZ017>020-022>027-061-062-162100-
NORTHEAST MONTANA

CITY           SKY/WX    TMP DP  RH WIND       PRES   REMARKS
GLASGOW        FAIR      21  12  68 N5        29.82F
GLENDIVE       CLOUDY    22  14  71 W17G23    29.86F WCI   8
JORDAN           N/A     28  19  69 W10       29.85F WCI  19
MALTA          SUNNY     14   9  79 W9        29.81F WCI   2
SIDNEY         PTSUNNY   24  15  68 SW14      29.83F WCI  12
WOLF POINT     FAIR      22  12  65 SW8       29.84F WCI  12
PLENTYWOOD       N/A     25  12  58 W15       29.75F WCI  12
POPLAR           N/A     19  10  68 W10       29.83F WCI   8
SCOBEY           N/A     22   9  57 W16       29.77F WCI   8
$$

MTZ028>42-056>058-162100-
SOUTHCENTRAL AND SOUTHEAST MONTANA

CITY           SKY/WX    TMP DP  RH WIND       PRES   REMARKS
BAKER          FAIR      23  13  65 W20       29.88F WCI   8
BILLINGS       CLOUDY    29  16  58 SW10      29.89F WCI  20
LIVINGSTON     LGT SNOW  29  18  63 SW32G53   29.88F WCI  13
MILES CITY     PTSUNNY   19  12  74 SW9       29.88F WCI   8
BIG TIMBER     MOSUNNY   30  18  59 W25G36    29.90F WCI  16
EKALAKA          N/A     25   6  44 SW14      29.86F WCI  13
FORSYTH          N/A     32  12  43 SW13      29.88F WCI  22
HARLOWTON      PTSUNNY   28  19  69 W15       29.84F WCI  16
LAUREL           N/A     28  16  59 SW9       29.91F WCI  20
$$

REGIONAL REPORTS...DAKOTAS

CITY           SKY/WX    TMP DP  RH WIND       PRES   REMARKS
WILLISTON      FAIR      24  14  65 SW14      29.81F WCI  12
MINOT          PTSUNNY   26  13  57 SW21      29.77F WCI  12
DICKINSON      FAIR      25  13  60 SW18      29.83F WCI  11
BEACH          PTSUNNY   21  12  68 W18       29.88F WCI   6
CROSBY         FAIR      23  14  68 W17G25    29.76F WCI   9
TIOGA          FAIR      21  14  73 W22G29    29.77S WCI   5
WATFORD CITY   PTSUNNY   27  14  59 SW21      29.80F WCI  13
BISMARCK       FAIR      27  13  55 SW10      29.91F WCI  17
GRAND FORKS    CLOUDY    19  10  68 S22       29.95F WCI   2
FARGO          FAIR      23   9  55 S23G30    30.03F WCI   7
BUFFALO SD       N/A     26  14  60 SW21      29.83F WCI  12
RAPID CITY     FAIR      34  21  59 SE9       29.95F WCI  27
$$

REGIONAL REPORTS...WYOMING/IDAHO/WASHINGTON

CITY           SKY/WX    TMP DP  RH WIND       PRES   REMARKS
GILLETTE       FAIR      32  15  49 W9        29.88F WCI  24
SHERIDAN       PTSUNNY   29  11  47 CALM      29.88F
BUFFALO WY     FAIR      33   5  30 E5        29.86F
CODY           CLOUDY    33   7  33 W16G25    29.90F WCI  23
YELLOWSTONE LA   N/A     14   8  77 VRB3      29.97F
IDAHO FALLS    LGT SNOW  28  20  71 SW16G25   30.14F WCI  16
SALMON         CLOUDY    34  19  54 S26G32    30.02F WCI  21
BOISE          CLOUDY    38  22  52 E6        30.24F
SPOKANE        CLOUDY    34  32  92 SW28G33   29.96F WCI  21
$$

REGIONAL REPORTS...ALBERTA

CITY           SKY/WX    TMP DP  RH WIND       PRES   REMARKS
CALGARY        MOSUNNY   27   9  46 N13       29.73R WCI  16
CARDSTON         N/A     32  16  51 W8          N/A  WCI  25
EDMONTON       PTSUNNY   21  14  73 N16G23    29.79R WCI   7
FORT MCMURRAY  SUNNY      9  -6  52 CALM      29.82F
HIGH LEVEL     MOSUNNY   12  -2  52 NW14G23   29.97S WCI  -3
LETHBRIDGE     PTSUNNY   32  18  55 W23G32    29.73F WCI  19
LLOYDMINSTER   PTSUNNY   19  12  73 NW10      29.71S WCI   8
MEDICINE HAT   PTSUNNY   28  18  64 W9        29.75F WCI  20
MILK RIVER       N/A     32  19  59 W13         N/A  WCI  22
PEACE RIVER    PTSUNNY   14   1  57 N9G20     29.99R WCI   2
PINCHER CREEK  CLOUDY    28  18  64 W17       29.73F WCI  16
WATERTON GATE    N/A     30  18  59 SW16G24     N/A  WCI  19
$$

REGIONAL REPORTS...SASKATCHEWAN

CITY           SKY/WX    TMP DP  RH WIND       PRES   REMARKS
CYPRESS HILLS    N/A     25   9  50 W10         N/A  WCI  15
ESTEVAN        PTSUNNY   21  12  68 SW16      29.73F WCI   7
MOOSE JAW        N/A     27  18  69 W18G24      N/A  WCI  13
PRINCE ALBERT  PTSUNNY   14   5  67 NW8       29.70F WCI   3
REGINA         MOSUNNY   21  12  68 W14       29.70F WCI   8
ROCKGLEN         N/A     18   9  68 W12         N/A  WCI   5
SASKATOON      PTSUNNY   18  12  79 W16       29.72S WCI   3
SWIFT CURRENT  MOSUNNY   25  18  74 W13G18    29.71F WCI  13
VAL MARIE        N/A     18  10  73 E2          N/A
$$




USA.gov is the U.S. government's official web portal to all federal, state and local government web resources and services.